Location: Sternwarte auf dem Internationalen Platz Vogelsang IP
(50.5721°N, 6.4398°E)
Time: 16:31:15
(UTC+01:00)

Transit 2A Rocket - Pass Details

Date: 11 December 2025
Orbit: 581 x 903 km, 66.7° (Epoch: 16 January)

Event Time Altitude Azimuth Distance (km) Brightness Sun altitude
Rises 14:53:47 0° 313° (NW) 3,509 8.3 9.6°
Reaches altitude 10° 14:57:02 10° 330° (NNW) 2,586 7.5 9.3°
Maximum altitude 15:01:22 20° 16° (NNE) 1,975 6.7 8.9°
Drops below altitude 10° 15:05:40 10° 62° (ENE) 2,569 7.2 8.5°
Sets 15:08:53 0° 79° (E) 3,479 8.0 8.2°
